TimeEDT,TemperatureF,Dew PointF,Humidity,Sea Level PressureIn,VisibilityMPH,Wind Direction,Wind SpeedMPH,Gust SpeedMPH,PrecipitationIn,Events,Conditions,WindDirDegrees,DateUTC
12:51 AM,68.0,66.0,93,30.04,8.0,Calm,Calm,-,N/A,,Overcast,0,2013-08-28 04:51:00
1:51 AM,70.0,66.9,90,30.02,9.0,Calm,Calm,-,N/A,,Overcast,0,2013-08-28 05:51:00
2:12 AM,71.6,66.2,83,30.05,10.0,Variable,4.6,-,N/A,,Overcast,0,2013-08-28 06:12:00
2:38 AM,71.6,66.2,83,30.04,10.0,SSE,5.8,-,N/A,,Mostly Cloudy,150,2013-08-28 06:38:00
2:47 AM,71.6,66.2,83,30.03,10.0,SE,5.8,-,N/A,,Mostly Cloudy,140,2013-08-28 06:47:00
2:51 AM,71.1,66.0,84,29.99,10.0,SSE,5.8,-,N/A,,Scattered Clouds,150,2013-08-28 06:51:00
3:51 AM,71.1,66.0,84,29.98,10.0,Calm,Calm,-,N/A,,Partly Cloudy,0,2013-08-28 07:51:00
4:20 AM,71.6,66.2,83,30.00,10.0,South,6.9,-,0.00,,Overcast,170,2013-08-28 08:20:00
4:51 AM,71.1,66.9,87,29.96,9.0,South,3.5,-,0.02,Rain,Rain,180,2013-08-28 08:51:00
5:13 AM,69.8,66.2,88,30.02,2.5,West,3.5,-,0.09,Rain,Heavy Rain,260,2013-08-28 09:13:00
5:27 AM,71.6,66.2,83,30.02,6.0,WSW,6.9,-,0.23,Rain,Rain,250,2013-08-28 09:27:00
5:39 AM,69.8,66.2,88,30.03,3.0,Variable,6.9,19.6,0.41,Rain,Heavy Rain,0,2013-08-28 09:39:00
5:46 AM,69.8,66.2,88,30.02,2.5,East,3.5,-,0.63,Rain,Heavy Rain,90,2013-08-28 09:46:00
5:51 AM,69.1,66.9,93,29.99,4.0,Calm,Calm,-,0.66,Rain,Heavy Rain,0,2013-08-28 09:51:00
6:17 AM,69.8,66.2,88,30.01,6.0,Calm,Calm,-,0.26,Rain,Rain,0,2013-08-28 10:17:00
6:25 AM,69.8,66.2,88,30.02,6.0,Calm,Calm,-,0.29,Rain,Rain,0,2013-08-28 10:25:00
6:37 AM,69.8,66.2,88,30.02,4.0,Calm,Calm,-,0.34,Rain,Heavy Rain,0,2013-08-28 10:37:00
6:46 AM,68.0,66.2,94,30.03,2.0,Calm,Calm,-,0.64,Rain,Heavy Rain,0,2013-08-28 10:46:00
6:51 AM,68.0,66.9,96,30.00,3.0,Calm,Calm,-,0.71,Rain,Heavy Rain,0,2013-08-28 10:51:00
7:51 AM,69.1,66.9,93,30.00,5.0,Calm,Calm,-,0.30,Rain,Light Rain,0,2013-08-28 11:51:00
8:14 AM,69.8,66.2,88,30.03,10.0,Calm,Calm,-,0.01,Rain,Light Rain,0,2013-08-28 12:14:00
8:51 AM,69.1,66.9,93,30.00,10.0,Calm,Calm,-,0.04,Rain,Light Rain,0,2013-08-28 12:51:00
9:19 AM,69.8,68.0,94,30.03,9.0,Calm,Calm,-,0.00,,Overcast,0,2013-08-28 13:19:00
9:51 AM,71.1,68.0,90,29.99,10.0,SE,4.6,-,0.00,,Overcast,140,2013-08-28 13:51:00
9:58 AM,71.6,68.0,88,30.02,10.0,Calm,Calm,-,N/A,,Overcast,0,2013-08-28 13:58:00
10:51 AM,73.0,69.1,87,29.98,10.0,Calm,Calm,-,0.00,,Overcast,0,2013-08-28 14:51:00
11:51 AM,75.9,68.0,76,29.96,10.0,SW,8.1,-,N/A,,Overcast,230,2013-08-28 15:51:00
12:51 PM,77.0,68.0,74,29.94,10.0,West,5.8,-,0.00,,Mostly Cloudy,270,2013-08-28 16:51:00
1:51 PM,73.0,70.0,90,29.94,5.0,Calm,Calm,-,0.07,Rain,Heavy Rain,0,2013-08-28 17:51:00
2:51 PM,73.0,70.0,90,29.93,5.0,SSE,3.5,-,0.21,Rain,Light Rain,160,2013-08-28 18:51:00
3:25 PM,73.4,68.0,83,29.94,10.0,Calm,Calm,-,0.00,,Overcast,0,2013-08-28 19:25:00
3:51 PM,73.0,68.0,84,29.92,3.0,Calm,Calm,-,0.12,Rain,Rain,0,2013-08-28 19:51:00
4:27 PM,69.8,68.0,94,29.93,2.5,Variable,3.5,-,0.33,Rain,Heavy Rain,0,2013-08-28 20:27:00
4:30 PM,69.8,68.0,94,29.94,3.0,Calm,Calm,-,0.34,Rain,Light Rain,0,2013-08-28 20:30:00
4:43 PM,69.8,68.0,94,29.94,1.8,Calm,Calm,-,0.47,Rain,Heavy Rain,0,2013-08-28 20:43:00
4:51 PM,70.0,68.0,93,29.91,2.5,Variable,5.8,-,0.56,Rain,Rain,0,2013-08-28 20:51:00
4:58 PM,71.6,69.8,94,29.93,3.0,Calm,Calm,-,0.07,Rain,Heavy Rain,0,2013-08-28 20:58:00
5:51 PM,72.0,69.1,91,29.91,10.0,SE,3.5,-,0.11,,Overcast,140,2013-08-28 21:51:00
6:45 PM,71.6,69.8,94,29.92,1.5,Calm,Calm,-,0.07,Rain,Heavy Rain,0,2013-08-28 22:45:00
6:51 PM,72.0,70.0,93,29.89,1.8,Variable,3.5,-,0.20,Rain,Heavy Rain,0,2013-08-28 22:51:00
6:55 PM,71.6,69.8,94,29.92,3.0,East,3.5,-,0.00,Rain,Light Rain,90,2013-08-28 22:55:00
7:08 PM,71.6,69.8,94,29.93,3.0,Calm,Calm,-,0.07,Rain,Heavy Rain,0,2013-08-28 23:08:00
7:38 PM,73.4,69.8,88,29.95,10.0,Variable,3.5,-,0.14,,Overcast,0,2013-08-28 23:38:00
7:51 PM,73.9,70.0,87,29.91,10.0,Calm,Calm,-,0.14,,Overcast,0,2013-08-28 23:51:00
8:46 PM,73.4,69.8,88,29.95,10.0,WSW,3.5,-,N/A,,Overcast,250,2013-08-29 00:46:00
8:51 PM,73.0,70.0,90,29.93,10.0,Variable,3.5,-,N/A,,Overcast,0,2013-08-29 00:51:00
9:49 PM,73.4,69.8,88,29.96,9.0,Calm,Calm,-,N/A,,Overcast,0,2013-08-29 01:49:00
9:51 PM,73.0,70.0,90,29.93,9.0,Calm,Calm,-,N/A,,Overcast,0,2013-08-29 01:51:00
10:51 PM,73.0,70.0,90,29.94,10.0,Calm,Calm,-,0.00,,Mostly Cloudy,0,2013-08-29 02:51:00
11:22 PM,71.6,69.8,94,29.97,5.0,North,6.9,-,0.04,Rain,Heavy Rain,360,2013-08-29 03:22:00
11:34 PM,71.6,69.8,94,29.98,6.0,North,3.5,-,0.16,Rain,Light Rain,350,2013-08-29 03:34:00
11:38 PM,71.6,69.8,94,29.97,9.0,Calm,Calm,-,0.16,Rain,Light Rain,0,2013-08-29 03:38:00
11:51 PM,72.0,70.0,93,29.94,9.0,Calm,Calm,-,0.16,,Overcast,0,2013-08-29 03:51:00